Weather History for Macomb, IL

Change the Weather History Date:

Thursday, September 12, 2013

  Actual Average (KBRL) Record (KBRL)
Temperature  
Mean Temperature 72 °F 69 °F  
Max Temperature 84 °F 80 °F 98 °F (1927)
Min Temperature 60 °F 58 °F 39 °F (1955)
Degree Days  
Heating Degree Days 0 1  
Month to date heating degree days 8  
Since 1 July heating degree days 12  
Cooling Degree Days 8 5  
Month to date cooling degree days 81  
Year to date cooling degree days 1124  
Growing Degree Days 22 (Base 50)    
Moisture  
Dew Point 58 °F    
Average Humidity 64    
Maximum Humidity 97    
Minimum Humidity 23    
Precipitation  
Precipitation 0.21 in 0.11 in 1.46 in (2008)
Month to date precipitation 1.51  
Year to date precipitation 28.76  
Sea Level Pressure  
Sea Level Pressure 30.09 in    
Wind  
Wind Speed 9 mph (NW)    
Max Wind Speed 23 mph    
Max Gust Speed 30 mph    
Visibility 10 miles    
Events Rain    
T = Trace of Precipitation, MM = Missing Value Source: NWS Daily Summary

Daily Weather History Graph

Daily Weather History Graph

Search for Another Location

Airport:

Trip Planner

Search our weather history database for the weather conditions in past years. The results will help you decide how hot, cold, wet, or windy it might be!

Date:

Astronomy

Sep. 12, 2013 Rise Set
Actual Time 6:40 AM CDT 7:16 PM CDT
Civil Twilight 6:13 AM CDT 7:43 PM CDT
Nautical Twilight 5:40 AM CDT 8:15 PM CDT
Astronomical Twilight 5:07 AM CDT 8:49 PM CDT
Moon 2:09 PM CDT (9/12) No Moon Set
Length of Visible Light 13h 30m
Length of Day
12h 35m
Waxing Crescent, 50% of the Moon is Illuminated
Sep 12
Waxing Crescent
Sep 12
First Quarter
Sep 19
Full
Sep 26
Last Quarter
Oct 4
New

Hourly Weather History & Observations

Time (CDT) Temp. Heat Index Dew Point Humidity Pressure Visibility Wind Dir Wind Speed Gust Speed Precip Events Conditions
12:15 AM 75.4 °F - 69.3 °F 81% 30.07 in 10.0 mi West 6.9 mph - N/A Rain Light Rain
12:35 AM 75.0 °F - 69.3 °F 82% 30.09 in 10.0 mi West 23.0 mph 29.9 mph N/A Rain Light Rain
12:55 AM 71.8 °F - 68.9 °F 91% 30.09 in 10.0 mi West 15.0 mph 23.0 mph 0.02 in Rain Rain
1:15 AM 70.7 °F - 69.1 °F 95% 30.08 in 4.0 mi WNW 16.1 mph 23.0 mph 0.08 in Rain Heavy Rain
1:35 AM 70.7 °F - 69.4 °F 96% 30.08 in 5.0 mi NW 11.5 mph - 0.16 in Rain Rain
1:55 AM 70.3 °F - 69.3 °F 96% 30.08 in 7.0 mi WNW 4.6 mph - 0.19 in Rain Rain
2:15 AM 70.2 °F - 69.1 °F 96% 30.07 in 10.0 mi West 4.6 mph - N/A Rain Light Rain
2:35 AM 70.2 °F - 69.3 °F 97% 30.07 in 10.0 mi West 5.8 mph - N/A   Overcast
2:55 AM 70.0 °F - 69.1 °F 97% 30.06 in 10.0 mi WSW 3.5 mph - N/A Rain Light Rain
3:35 AM 70.2 °F - 69.3 °F 97% 30.06 in 10.0 mi Calm Calm - N/A Rain Light Rain
3:55 AM 70.3 °F - 69.4 °F 97% 30.06 in 10.0 mi Calm Calm - N/A   Overcast
4:15 AM 70.7 °F - 69.8 °F 97% 30.06 in 10.0 mi WNW 3.5 mph - N/A Rain Light Rain
4:35 AM 70.7 °F - 69.8 °F 97% 30.07 in 10.0 mi West 5.8 mph - N/A   Overcast
4:55 AM 70.3 °F - 69.4 °F 97% 30.08 in 10.0 mi West 5.8 mph - N/A   Overcast
5:15 AM 70.2 °F - 69.3 °F 97% 30.08 in 10.0 mi West 5.8 mph - N/A   Overcast
5:35 AM 70.2 °F - 69.3 °F 97% 30.08 in 10.0 mi West 5.8 mph - N/A   Mostly Cloudy
5:55 AM 70.3 °F - 69.4 °F 97% 30.08 in 10.0 mi WNW 5.8 mph - N/A   Overcast
6:15 AM 70.7 °F - 69.8 °F 97% 30.08 in 10.0 mi WNW 6.9 mph - N/A   Overcast
6:35 AM 70.9 °F - 70.0 °F 97% 30.08 in 10.0 mi NW 6.9 mph - N/A   Overcast
6:55 AM 71.4 °F - 69.4 °F 93% 30.08 in 10.0 mi NW 9.2 mph - N/A   Overcast
7:15 AM 71.6 °F - 68.2 °F 89% 30.09 in 10.0 mi West 5.8 mph - N/A   Overcast
7:35 AM 71.1 °F - 68.9 °F 93% 30.09 in 10.0 mi West 3.5 mph - N/A   Overcast
7:55 AM 71.6 °F - 68.9 °F 91% 30.09 in 10.0 mi West 3.5 mph - N/A   Overcast
8:15 AM 71.6 °F - 69.3 °F 92% 30.10 in 10.0 mi SW 5.8 mph - N/A   Mostly Cloudy
8:35 AM 71.8 °F - 69.4 °F 92% 30.09 in 10.0 mi SW 8.1 mph - N/A   Scattered Clouds
8:55 AM 72.5 °F - 70.0 °F 92% 30.09 in 10.0 mi WSW 5.8 mph - N/A   Scattered Clouds
9:15 AM 72.9 °F - 70.3 °F 92% 30.09 in 10.0 mi West 6.9 mph - N/A   Scattered Clouds
9:35 AM 73.6 °F - 70.3 °F 90% 30.09 in 10.0 mi West 5.8 mph - N/A   Scattered Clouds
9:55 AM 75.2 °F - 71.2 °F 87% 30.09 in 10.0 mi West 8.1 mph - N/A   Scattered Clouds
10:15 AM 77.0 °F - 69.6 °F 78% 30.09 in 10.0 mi NW 5.8 mph - N/A   Scattered Clouds
10:35 AM 77.5 °F - 68.4 °F 73% 30.09 in 10.0 mi WNW 5.8 mph - N/A   Clear
10:55 AM 79.7 °F - 67.1 °F 65% 30.10 in 10.0 mi WNW 8.1 mph - N/A   Clear
11:15 AM 81.0 °F 82.5 °F 63.7 °F 56% 30.10 in 10.0 mi NNW 12.7 mph 17.3 mph N/A   Clear
11:35 AM 81.5 °F 81.8 °F 59.7 °F 47% 30.10 in 10.0 mi WNW 11.5 mph 16.1 mph N/A   Clear
11:55 AM 82.2 °F 82.0 °F 57.6 °F 43% 30.10 in 10.0 mi NNW 8.1 mph - N/A   Clear
12:15 PM 82.2 °F 81.3 °F 53.4 °F 37% 30.10 in 10.0 mi NW 9.2 mph - N/A   Clear
12:35 PM 83.5 °F - 52.0 °F 34% 30.10 in 10.0 mi NW 9.2 mph - N/A   Clear
12:55 PM 82.9 °F - 51.4 °F 33% 30.10 in 10.0 mi NNW 11.5 mph 18.4 mph N/A   Clear
1:15 PM 83.3 °F - 51.4 °F 33% 30.09 in 10.0 mi NW 12.7 mph 19.6 mph N/A   Clear
1:35 PM 83.8 °F - 50.0 °F 31% 30.09 in 10.0 mi NW 13.8 mph - N/A   Clear
1:55 PM 83.7 °F - 47.7 °F 28% 30.09 in 10.0 mi NNW 11.5 mph 19.6 mph N/A   Clear
2:15 PM 83.5 °F - 47.3 °F 28% 30.08 in 10.0 mi NNW 12.7 mph 21.9 mph N/A   Clear
2:35 PM 84.0 °F - 47.3 °F 28% 30.08 in 10.0 mi NNW 15.0 mph 19.6 mph N/A   Clear
2:55 PM 84.2 °F - 45.5 °F 26% 30.07 in 10.0 mi NNW 15.0 mph 20.7 mph N/A   Clear
3:15 PM 84.2 °F - 43.5 °F 24% 30.06 in 10.0 mi NW 11.5 mph 23.0 mph N/A   Clear
3:35 PM 83.8 °F - 43.9 °F 25% 30.06 in 10.0 mi NNW 16.1 mph 19.6 mph N/A   Clear
3:55 PM 83.7 °F - 41.7 °F 23% 30.06 in 10.0 mi NNW 13.8 mph 24.2 mph N/A   Clear
4:15 PM 82.8 °F - 41.9 °F 24% 30.06 in 10.0 mi NNW 13.8 mph 26.5 mph N/A   Clear
4:35 PM 82.4 °F - 40.8 °F 23% 30.06 in 10.0 mi NNW 17.3 mph 24.2 mph N/A   Clear
4:55 PM 81.7 °F - 43.0 °F 25% 30.06 in 10.0 mi NNW 13.8 mph 21.9 mph N/A   Clear
5:15 PM 80.6 °F - 43.2 °F 27% 30.06 in 10.0 mi North 12.7 mph 21.9 mph N/A   Clear
5:35 PM 79.9 °F - 42.8 °F 27% 30.06 in 10.0 mi NNW 13.8 mph 18.4 mph N/A   Clear
5:55 PM 79.0 °F - 44.2 °F 29% 30.07 in 10.0 mi NNW 12.7 mph - N/A   Clear
6:15 PM 78.1 °F - 44.2 °F 30% 30.07 in 10.0 mi NNW 8.1 mph - N/A   Clear
6:35 PM 76.6 °F - 43.7 °F 31% 30.07 in 10.0 mi NNW 11.5 mph 18.4 mph N/A   Clear
6:55 PM 74.7 °F - 44.8 °F 34% 30.07 in 10.0 mi NNW 6.9 mph - N/A   Clear
7:15 PM 72.5 °F - 46.4 °F 39% 30.08 in 10.0 mi NNW 6.9 mph - N/A   Clear
7:35 PM 69.4 °F - 48.2 °F 47% 30.08 in 10.0 mi NNW 5.8 mph - N/A   Clear
7:55 PM 67.1 °F - 50.0 °F 54% 30.09 in 10.0 mi NNW 5.8 mph - N/A   Clear
8:15 PM 67.3 °F - 49.6 °F 53% 30.10 in 10.0 mi NNW 6.9 mph - N/A   Clear
8:35 PM 66.4 °F - 49.5 °F 54% 30.11 in 10.0 mi North 6.9 mph - N/A   Clear
8:55 PM 65.7 °F - 49.5 °F 56% 30.11 in 10.0 mi North 5.8 mph - N/A   Clear
9:15 PM 65.3 °F - 49.5 °F 57% 30.12 in 10.0 mi North 8.1 mph - N/A   Clear
9:35 PM 64.9 °F - 49.6 °F 58% 30.12 in 10.0 mi North 6.9 mph - N/A   Clear
9:55 PM 64.2 °F - 50.0 °F 60% 30.13 in 10.0 mi North 5.8 mph - N/A   Clear
10:15 PM 64.4 °F - 50.2 °F 60% 30.13 in 10.0 mi North 6.9 mph - N/A   Clear
10:35 PM 63.7 °F - 50.4 °F 62% 30.13 in 10.0 mi North 6.9 mph - N/A   Clear
10:55 PM 63.1 °F - 50.5 °F 63% 30.13 in 10.0 mi North 6.9 mph - N/A   Clear
11:15 PM 62.6 °F - 50.5 °F 65% 30.13 in 10.0 mi North 8.1 mph - N/A   Clear
11:35 PM 61.9 °F - 50.9 °F 67% 30.14 in 10.0 mi North 4.6 mph - N/A   Clear
11:55 PM 60.8 °F - 51.1 °F 70% 30.13 in 10.0 mi North 6.9 mph - N/A   Clear